Tracking 19717 objects as of 25-Jun-2019
HD Live streaming from Space Station
objects crossing your sky now

FENGYUN 1C DEB

Track FENGYUN 1C DEB now!
10-day predictions


NORAD ID: 30331
Int'l Code: 1999-025AAS
Perigee: 844.9 km
Apogee: 989.7 km
Inclination: 99.2 °
Period: 103.2 minutes
Semi major axis: 7288 km
RCS: 0.0259 m2 (small)
Launch date: May 10, 1999
Source: People's Republic of China (PRC)
Launch site: Taiyaun Space Center, China (TSC)

Note: This is SATELLITE DEBRIS
aabbcc
Your satellite tracking list
Your tracking list is empty




NASA's NSSDC Master Catalog

Two Line Element Set (TLE):
1 30331U 99025AAS 19175.08581778 -.00000124  00000-0 -55534-4 0  9997
2 30331  99.2359 205.7381 0099295 357.5789  60.9536 13.95288390631505
Source of the keplerian elements: AFSPC